TimeCDT,TemperatureF,Dew PointF,Humidity,Sea Level PressureIn,VisibilityMPH,Wind Direction,Wind SpeedMPH,Gust SpeedMPH,PrecipitationIn,Events,Conditions,WindDirDegrees,DateUTC
12:53 AM,35.1,30.9,85,30.25,10.0,ESE,3.5,-,N/A,,Overcast,120,2013-04-03 05:53:00
1:53 AM,35.1,30.9,85,30.25,10.0,East,4.6,-,N/A,,Overcast,100,2013-04-03 06:53:00
2:53 AM,35.1,30.0,82,30.23,10.0,East,5.8,-,N/A,,Overcast,80,2013-04-03 07:53:00
3:53 AM,35.1,28.9,78,30.22,10.0,East,5.8,-,N/A,,Clear,80,2013-04-03 08:53:00
4:53 AM,34.0,28.0,79,30.23,10.0,East,4.6,-,N/A,,Clear,100,2013-04-03 09:53:00
5:53 AM,34.0,28.0,79,30.27,10.0,East,4.6,-,N/A,,Clear,100,2013-04-03 10:53:00
6:53 AM,35.1,24.1,64,30.27,10.0,East,6.9,-,N/A,,Clear,90,2013-04-03 11:53:00
7:53 AM,36.0,23.0,59,30.29,10.0,East,5.8,-,N/A,,Overcast,90,2013-04-03 12:53:00
8:53 AM,37.9,24.1,57,30.29,10.0,East,8.1,17.3,N/A,,Overcast,90,2013-04-03 13:53:00
9:53 AM,39.0,23.0,53,30.30,10.0,East,10.4,-,N/A,,Overcast,100,2013-04-03 14:53:00
10:53 AM,41.0,21.9,47,30.30,10.0,East,12.7,-,N/A,,Overcast,90,2013-04-03 15:53:00
11:53 AM,43.0,23.0,45,30.29,10.0,East,12.7,-,N/A,,Overcast,80,2013-04-03 16:53:00
12:53 PM,46.9,21.9,37,30.24,10.0,ESE,11.5,-,N/A,,Partly Cloudy,120,2013-04-03 17:53:00
1:53 PM,50.0,21.0,32,30.22,10.0,East,12.7,19.6,N/A,,Clear,90,2013-04-03 18:53:00
2:53 PM,50.0,21.0,32,30.21,10.0,ENE,11.5,-,N/A,,Overcast,60,2013-04-03 19:53:00
3:53 PM,50.0,21.0,32,30.22,10.0,East,3.5,-,N/A,,Overcast,100,2013-04-03 20:53:00
4:53 PM,50.0,21.0,32,30.20,10.0,East,9.2,-,N/A,,Overcast,100,2013-04-03 21:53:00
5:53 PM,50.0,23.0,35,30.19,10.0,ESE,5.8,-,N/A,,Overcast,110,2013-04-03 22:53:00
6:53 PM,48.9,23.0,36,30.19,10.0,ESE,6.9,-,N/A,,Overcast,110,2013-04-03 23:53:00
7:53 PM,46.9,24.1,41,30.18,10.0,East,4.6,-,N/A,,Scattered Clouds,100,2013-04-04 00:53:00
8:53 PM,46.0,24.1,42,30.19,10.0,East,4.6,-,N/A,,Overcast,100,2013-04-04 01:53:00
9:53 PM,46.0,24.1,42,30.20,10.0,ESE,4.6,-,N/A,,Overcast,110,2013-04-04 02:53:00
10:53 PM,46.0,24.1,42,30.19,10.0,East,5.8,-,N/A,,Overcast,100,2013-04-04 03:53:00
11:53 PM,45.0,24.1,44,30.19,10.0,ESE,6.9,-,N/A,,Overcast,120,2013-04-04 04:53:00